Location: DARK SKY Beskydy - Park tmavé oblohy, www.darkskybeskydy.cz
(49.4926°N, 18.5016°E)
Time: 17:23:27
(UTC+02:00)

PCSat - Pass Details

Date: 04 August 2024
Orbit: 781 x 793 km, 67.1° (Epoch: 08 September)

Event Time Altitude Azimuth Distance (km) Brightness Sun altitude
Rises 04:13:38 0° 321° (NW) 3,301 12.8 -9.9°
Reaches altitude 10° 04:16:06 10° 317° (NW) 2,368 12.0 -9.6°
Maximum altitude 04:21:21 52° 242° (WSW) 977 9.7 -8.9°
Drops below altitude 10° 04:26:35 10° 167° (SSE) 2,351 11.8 -8.3°
Sets 04:29:02 0° 163° (SSE) 3,275 12.5 -8.0°
